FENGYUN 1C DEB, 41833

Orbit data source: Space-Track

FENGYUN 1C DEB, 41833 is space debris in SSO originally from a launch on Mon, 10 May 1999 UTC launched from the Taiyaun Space Center, China (TSC). Fengyun 1C debris stems from the Chinese weather satellite Fengyun-1C, which was intentionally destroyed by a Chinese anti-satellite missile in 2007. This event dramatically increased the amount of space debris, with thousands of trackable fragments posing hazards to satellites and human spaceflight. The Fengyun 1C debris cloud has become a focal point in discussions about space sustainability and the need for international regulations to prevent the creation of new debris.

Loading next visibility...
Identifier
41833, 1999-025EYL
Orbit
SSO
Country
Flag of CNCN / PRC
Related business
Manufacturer
Unknown
Mission
Spacecraft
Bus & Motor
Unknown
Mass
Unknown
Launch date (UTC)
1999-05-10 (27 years ago)
Launch vehicle
Unknown
Launch site
Taiyaun Space Center, China (TSC)
Object type
Payload
Rocket body
Debris
Shape & HBR
Unknown shape, 0.1 m
Radar Cross Section
Small (<0.1 m²)

Expand to show TLE details & history
Last TLE update: 17 hours ago

TLE from 17 hours ago
0 FENGYUN 1C DEB
1 41833U 99025EYL 26208.12689426  .00002810  00000-0  11487-2 0  9994
2 41833  98.7353 282.3591 0050274 284.5783  74.9825 14.27395166505921
Epoch: 2026-07-27T03:02Z
TLE epoch observation values (Epoch: 2026-07-27T03:02:43.664Z)
Latitude
-0.00002°
Longitude
-68.13777°
Altitude
794.191 km
Speed
7.461 km/s
True Right ascension
18h 49m 26s
True Declination
0° 00' 00"
Sunlit
Object was in full shadow at epoch
Visualization orbit readout
Latitude
Unknown
Longitude
Unknown
Altitude
Unknown
Speed
Unknown
Apparent Right ascension
Unknown
Apparent Declination
Unknown
Sunlit
N/A
Visualization observer readout
Local Sidereal Time
09:07:15
Azimuth
Unknown
Elevation
Unknown
Doppler factor
Unknown
Orbital elements
Apogee altitude
833.676 km
Perigee altitude
761.526 km
Semi-major axis
7,175.738 km
Eccentricity
0.00503
Inclination
98.7353°
RAAN
282.3591°
Arg. of periapsis
284.5783°
True anomaly
75.53982°
Mean anomaly
74.9825°
Eccentric anomaly
75.26107°
Mean motion
3.57062 °/min
Orbital period
100.82 mins
BSTAR
0.0011487
Loading maneuver chart data...
Computing Atmospheric mass density...

Documentation

Showing up to 5 results
|